Voltar ao catálogo

QIANFAN-17

AtivoComunicaçõesPO
NORAD 60395·PAYLOAD·🇨🇳 China

Lançado Aug 6, 2024 de Taiyuan Satellite Launch Center

Loading…

Próximas Passagens (próximas 24 horas)

TLE

AtualizadoSource: Space-Track

Época: Sep 14, 2026, 13:03 UTC

1 60395U 24140S   26257.54439311  .00000018  00000-0  96289-5 0  9994
2 60395  88.9676 270.8345 0016740 124.8250 235.4479 13.51021514105371

Acompanhe QIANFAN-17 em tempo real com AllMySat

Download on the App Store